User: anonymous   Login
Location: Unspecified
(0.0000°N, 0.0000°E)
Time: 03:35:21
(UTC+00:00)
Language:

GOES 1 - Orbit

View from above orbital plane
View from above orbital plane
View from above satellite
View from above satellite

Ground track
Ground track

The orbit data is extracted from the following two-line orbital elements,

1  8366U 75100A   17112.14856463 -.00000239 +00000-0 +00000-0 0  9990
2  8366 012.1380 319.1892 0004289 288.4925 293.9231 01.00288550151683
Epoch (UTC): 22 April 2017 03:33:55
Eccentricity: 0.0004289
inclination: 12.1380°
perigee height: 35763 km
apogee height: 35799 km
right ascension of ascending node: 319.1892°
argument of perigee: 288.4925°
revolutions per day: 1.00288550
mean anomaly at epoch: 293.9231°
orbit number at epoch: 15168

The dashed part of the orbit path shows where the satellite is in the earth's shadow,  

DLR